Printer-friendly version

IAU Minor Planet Center

Minor Planet Center

MPEC 2000-J10: 2000 HA24

The following Minor Planet Electronic Circular may be linked-to from your own Web pages, but must not otherwise be redistributed electronically.


Read MPEC 2000-J09 Read MPEC 2000-J11


M.P.E.C. 2000-J10                                Issued 2000 May 3, 21:37 UT

     The Minor Planet Electronic Circulars contain information on unusual
         minor planets and routine data on comets.  They are published
   on behalf of Commission 20 of the International Astronomical Union by the
          Minor Planet Center, Smithsonian Astrophysical Observatory,
                          Cambridge, MA 02138, U.S.A.

             Prepared using the Tamkin Foundation Computer Network

             BMARSDEN@CFA.HARVARD.EDU or GWILLIAMS@CFA.HARVARD.EDU
          URL http://cfa-www.harvard.edu/iau/mpc.html  ISSN 1523-6714

                                   2000 HA24

Observations:
     K00H24A* C2000 04 28.33375 15 08 58.73 -27 44 04.2          18.2        704
     K00H24A  C2000 04 28.34601 15 08 56.04 -27 43 52.8          17.9        704
     K00H24A  C2000 04 28.35912 15 08 53.11 -27 43 39.6          18.1        704
     K00H24A  C2000 04 28.37184 15 08 50.45 -27 43 27.9          18.4        704
     K00H24A  C2000 04 28.38600 15 08 47.33 -27 43 12.4          18.1        704
     K00H24A  C2000 04 29.28017 15 05 47.49 -27 28 56.6          18.1        704
     K00H24A  C2000 04 29.28757 15 05 45.87 -27 28 48.6          18.0        704
     K00H24A  C2000 04 29.29236 15 05 44.91 -27 28 45.7          17.7        704
     K00H24A  C2000 04 29.30115 15 05 43.06 -27 28 35.8          18.4        704
     K00H24A  C2000 04 29.31529 15 05 40.15 -27 28 22.4          18.6        704
     K00H24A  C2000 04 29.32889 15 05 37.10 -27 28 09.8          18.0        704
     K00H24A  C2000 04 29.33786 15 05 35.19 -27 28 00.7          17.8        704
     K00H24A  C2000 04 29.35734 15 05 31.04 -27 27 41.5          17.8        704
     K00H24A  C2000 04 29.56702 15 04 49.86 -27 23 49.1          18.8        422
     K00H24A  C2000 04 29.56858 15 04 49.52 -27 23 47.3          18.7        422
     K00H24A  C2000 04 29.64240 15 04 34.35 -27 23 04.4          18.3 V      402
     K00H24A  C2000 04 29.64816 15 04 33.10 -27 22 58.3                      402
     K00H24A  C2000 04 30.26255 15 02 31.33 -27 12 50.7          17.8        704
     K00H24A  C2000 04 30.29335 15 02 24.93 -27 12 20.7          18.2        704
     K00H24A  C2000 04 30.30565 15 02 22.29 -27 12 08.6          18.0        704
     K00H24A  C2000 04 30.31651 15 02 20.07 -27 11 57.4          17.8        704
     K00H24A  C2000 04 30.32382 15 02 18.32 -27 11 51.4          18.4        704
     K00H24A  C2000 04 30.33098 15 02 17.03 -27 11 42.9          18.0        704
     K00H24A  C2000 04 30.33993 15 02 15.07 -27 11 35.0          18.6        704
     K00H24A  C2000 04 30.34855 15 02 13.39 -27 11 25.5          17.8        704
     K00H24A  C2000 04 30.35573 15 02 11.85 -27 11 18.9          18.9        704
     K00H24A  C2000 04 30.38032 15 02 06.71 -27 10 53.3          18.2        704
     K00H24A  C2000 04 30.99394 15 00 06.57 -27 00 40.3          17.1 R      046
     K00H24A  C2000 04 30.99512 15 00 06.29 -27 00 39.3                      046
     K00H24A  C2000 04 30.99610 15 00 06.06 -27 00 37.6                      046
     K00H24A  C2000 04 30.99707 15 00 05.87 -27 00 36.9                      046
     K00H24A  C2000 04 30.99821 15 00 05.62 -27 00 36.4          16.8 R      046
     K00H24A  C2000 05 01.21860 14 59 21.98 -26 56 25.0          19.1 V      860
     K00H24A  C2000 05 01.22090 14 59 21.41 -26 56 22.6          19.5 V      860
     K00H24A  C2000 05 01.22319 14 59 20.87 -26 56 20.0          19.3 V      860
     K00H24A  C2000 05 01.22547 14 59 20.47 -26 56 17.9          19.2 V      860
     K00H24A  C2000 05 02.26901 14 56 00.56 -26 38 51.7          17.7        704
     K00H24A  C2000 05 02.27879 14 55 58.60 -26 38 41.7          17.9        704
     K00H24A  C2000 05 02.28136 14 55 58.04 -26 38 39.2          17.8        704
     K00H24A  C2000 05 02.29371 14 55 55.53 -26 38 26.8          18.6        704
     K00H24A  C2000 05 02.29791 14 55 54.67 -26 38 21.8          18.4        704
     K00H24A  C2000 05 02.30603 14 55 53.05 -26 38 14.4          18.5        704
     K00H24A  C2000 05 02.31085 14 55 52.10 -26 38 08.8          18.5        704
     K00H24A  C2000 05 02.31838 14 55 50.59 -26 38 00.6          18.3        704
     K00H24A  C2000 05 02.32389 14 55 49.41 -26 37 54.2          18.4        704
     K00H24A  C2000 05 02.33669 14 55 46.89 -26 37 42.4          18.7        704
     K00H24A  C2000 05 02.39428 14 55 35.27 -26 36 39.8                      651
     K00H24A  C2000 05 02.39628 14 55 34.87 -26 36 37.3          18.6 V      651
     K00H24A  C2000 05 02.39830 14 55 34.48 -26 36 35.8          18.6 V      651
     K00H24A  C2000 05 02.50161 14 55 16.05 -26 34 20.3          17.0 R      467
     K00H24A  C2000 05 02.50448 14 55 15.48 -26 34 17.2          17.2 R      467
     K00H24A  C2000 05 02.50591 14 55 15.18 -26 34 15.6          17.0 R      467
     K00H24A  C2000 05 02.51167 14 55 14.05 -26 34 10.5          16.9 R      467
     K00H24A  C2000 05 02.98269 14 53 44.69 -26 26 31.8          17.2 R      046
     K00H24A  C2000 05 02.98436 14 53 44.44 -26 26 30.6                      046
     K00H24A  C2000 05 02.98509 14 53 44.27 -26 26 28.8                      046
     K00H24A  C2000 05 02.98584 14 53 44.14 -26 26 28.5                      046
     K00H24A  C2000 05 03.27314 14 52 50.82 -26 21 24.0          17.9        704
     K00H24A  C2000 05 03.27397 14 52 50.63 -26 21 22.5          17.4        704
     K00H24A  C2000 05 03.29887 14 52 45.73 -26 20 57.9          18.0        704
     K00H24A  C2000 05 03.29896 14 52 45.70 -26 20 56.5          18.2        704
     K00H24A  C2000 05 03.31152 14 52 43.24 -26 20 43.7          17.9        704
     K00H24A  C2000 05 03.31170 14 52 43.16 -26 20 42.9          18.1        704
     K00H24A  C2000 05 03.32399 14 52 40.70 -26 20 29.9          17.9        704
     K00H24A  C2000 05 03.32450 14 52 40.69 -26 20 29.2          18.4        704

Observer details:
046 Klet.  Observers J. Ticha, M. Tichy, Z. Moravec.  0.57-m f/5.2 reflector
    + CCD.
402 Dynic Astronomical Observatory.  Observer A. Sugie.  0.60-m f/3.7 reflector
    + CCD.
422 Loomberah.  Observer G. J. Garradd.  0.45-m f/5.4 reflector + CCD.
467 Auckland Observatory.  Observer I. P. Griffin.  0.5-m reflector + CCD.
651 Grasslands Observatory, Tucson.  Observer J. E. McGaha.  0.62-m f/5.1
    reflector + CCD.
704 Lincoln Laboratory ETS, New Mexico.  Observers M. Blythe, F. Shelly,
    M. Bezpalko, M. Elowitz, R. Huber.  Measurers J. Stuart, H. Viggh,
    R. Sayer, J. B. Evans.  1.0-m f/2.15 reflector + CCD.
860 Valinhos.  Observers P. R. Holvorcem, M. Breganhola.  0.36-m f/3.6
    Schmidt-Cassegrain + CCD.

Orbital elements:
2000 HA24                                                            PHA 0.028
Epoch 2000 Apr. 26.0 TT = JDT 2451660.5                 Williams
M  95.35111              (2000.0)            P               Q
n   0.81044258     Peri.  141.62175     -0.02771848     -0.99919394
a   1.1393432      Node   309.94703     +0.90752186     -0.01297562
e   0.3183589      Incl.    2.17066     +0.41908921     -0.03798829
P   1.22           H   19.3           G   0.15
From 65 observations 2000 Apr. 28-May 3.

Ephemeris:
2000 HA24                a,e,i = 1.14, 0.32, 2                   q = 0.7766
Date    TT    R. A. (2000) Decl.     Delta      r     Elong.  Phase     V
2000 04 26    15 17.01   -28 19.0    0.285    1.277   159.4    16.1    18.0
2000 05 01    15 00.09   -27 00.1    0.296    1.297   166.6    10.3    17.9
2000 05 06    14 44.64   -25 32.5    0.311    1.317   170.8     7.0    17.9
2000 05 11    14 31.29   -24 02.8    0.331    1.336   168.6     8.6    18.1
2000 05 16    14 20.36   -22 36.7    0.355    1.354   162.8    12.7    18.5
2000 05 21    14 11.86   -21 18.6    0.382    1.371   156.5    17.1    18.8
2000 05 26    14 05.69   -20 10.7    0.413    1.387   150.4    21.2    19.1
2000 05 31    14 01.63   -19 14.2    0.446    1.402   144.6    24.8    19.4
2000 06 05    13 59.46   -18 29.2    0.482    1.416   139.2    27.9    19.7

2000 06 15    13 59.93   -17 31.3    0.562    1.440   129.6    32.9    20.2
2000 06 25    14 05.35   -17 08.9    0.647    1.461   121.2    36.5    20.7
2000 07 05    14 14.50   -17 13.3    0.737    1.477   113.8    39.0    21.0
2000 07 15    14 26.54   -17 37.3    0.829    1.490   107.2    40.7    21.4
2000 07 25    14 40.83   -18 14.5    0.923    1.498   101.1    41.7    21.6
2000 08 04    14 57.00   -19 00.0    1.016    1.502    95.4    42.3    21.9
2000 08 14    15 14.80   -19 49.9    1.107    1.501    90.1    42.4    22.1

Gareth V. Williams           (C) Copyright 2000 MPC           M.P.E.C. 2000-J10

Read MPEC 2000-J09 Read MPEC 2000-J11


Our Web policy. Index to the CBAT/MPC/ICQ pages.


Valid HTML 4.01!